Regional Weather Roundup
Issued by NWS

Home | Current Version | Previous Version | Text Only | Print | Product List | Glossary Off
Versions: 1 2 3 4 5 6 7 8 9 10 11 12 13 14 15 16 17 18 19 20 21 22 23 24 25 26 27 28 29 30 31 32 33 34 35 36 37 38 39 40 41 42 43 44 45 46 47 48 49 50

000
ASUS44 KMEG 011800
RWRTN
TENNESSEE HOURLY STATE WEATHER ROUNDUP
NATIONAL WEATHER SERVICE MEMPHIS TN
1200 PM CST SUN FEB 01 2015

TNZ002-004-019-021-049-052-054-088>092-011900-
WEST TENNESSEE

CITY           SKY/WX    TMP DP  RH WIND       PRES   REMARKS
MEMPHIS INTL   CLOUDY    57  54  89 SW18G26   29.77F
NWS MEMPHIS      N/A     56 N/A N/A MISG        N/A
JACKSON        LGT RAIN  52  49  89 S15G28    29.77F
DYERSBURG      CLOUDY    54  41  62 S8        29.75F
UNION CITY     CLOUDY    48  48 100 SW6       29.73F
PARIS          CLOUDY    48  46  93 S14       29.75F
LEXINGTON      CLOUDY    50  48  93 S17       29.78F
SAVANNAH       CLOUDY    52  52 100 S15       29.82F
$$

TNZ008-025-027-028-033-062-065-066-011900-
NORTH MIDDLE TENNESSEE

CITY           SKY/WX    TMP DP  RH WIND       PRES   REMARKS
NASHVILLE      LGT RAIN  48  45  89 S17G25    29.82F FOG
CLARKSVILLE    LGT RAIN  47  46  97 S10G20    29.76F FOG
COOKEVILLE     CLOUDY    46  41  81 S16G28    29.87F
CROSSVILLE     LGT RAIN  44  37  76 S13G23    29.93F
$$

TNZ061-075-076-078-094-096-097-011900-
SOUTH MIDDLE TENNESSEE

CITY           SKY/WX    TMP DP  RH WIND       PRES   REMARKS
FAYETTEVILLE   CLOUDY    45  45 100 MISG      29.90F
TULLAHOMA      CLOUDY    46  43  87 S15       29.90F
WINCHESTER     CLOUDY    46  45  93 SE9       29.94F
COLUMBIA       CLOUDY   N/A N/A N/A S14       29.81F
SHELBYVILLE    CLOUDY    48  46  93 S15       29.87F
$$

TNZ017-018-042-046-047-011900-
NORTHEAST TENNESSEE

CITY           SKY/WX    TMP DP  RH WIND       PRES   REMARKS
TRI CITIES     CLOUDY    47  21  35 CALM      30.03F
ELIZABETHTON   CLEAR     52  12  20 S5        30.03F
$$

TNZ012-013-036-069-073-074-011900-
CENTRAL EAST TENNESSEE

CITY           SKY/WX    TMP DP  RH WIND       PRES   REMARKS
KNOXVILLE      CLOUDY    45  27  49 CALM      30.00F
OAK RIDGE      LGT RAIN  46  28  49 W3        30.02F
GATLINBURG     CLEAR     45  23  42 NE6       29.99F
$$

TNZ083-085-099-011900-
SOUTHEAST TENNESSEE

CITY           SKY/WX    TMP DP  RH WIND       PRES   REMARKS
CHATTANOOGA    LGT RAIN  46  42  86 SW5       30.02F
$$

SKY/WX REPORTED AS FAIR MEANS FEW OR NO CLOUDS BELOW
12 THOUSAND FEET.




USA.gov is the U.S. government's official web portal to all federal, state and local government web resources and services.